[[{"header":{"parameterUnit":"m.s-1","parameterCategory":1,"la1":30.2991,"la2":30.254,"lo1":-89.0895,"lo2":-89.0444,"dy":0.0017,"dx":0.0017,"nx":28,"ny":28,"refTime":"2023-09-27T21:00:00:Z","depth":0,"parameterNumber":2,"parameterNumberName":"U-component_of_WINDS"},"data":[0,0,0,0,0,0,0,0,0,0,0,0,0,0,0,0,0,0,0,0,0,0,0,0,0,0,0,0,0,0,0,0,0,0,0,0,0,0,0,0,0,0,0,0,0,0,0,0,0,0,0,0,0,0,0,0,0,0,-4.5469,-4.5469,0,-4.5533,-4.5533,-4.5534,-4.5371,-4.5366,-4.536,-4.5356,-4.5422,-4.5429,-4.5435,0,0,0,0,0,0,0,0,0,0,0,0,0,-4.5206,-4.5211,-4.5469,-4.5469,-4.547,-4.5533,-4.5533,-4.5534,-4.5372,-4.5365,-4.5359,-4.5353,-4.542,-4.5428,-4.5436,0,0,0,0,0,0,0,0,0,0,0,0,0,-4.53,-4.5213,-4.5469,-4.5397,-4.5391,-4.5532,-4.5533,-4.5534,-4.5373,-4.5365,-4.5357,-4.535,-4.5418,-4.5427,-4.5437,-4.5651,0,0,-4.5467,-4.5471,0,0,0,0,0,0,0,0,-4.5295,-4.531,-4.5406,-4.5402,-4.5396,-4.5436,-4.5465,-4.5574,-4.5375,-4.538,-4.5355,-4.5347,-4.5433,-4.5441,-4.547,-4.5655,-4.5657,-4.5468,-4.5474,-4.5478,-4.5481,0,0,0,0,0,0,0,-4.5288,-4.5306,-4.5494,-4.5408,-4.5401,-4.5361,-4.5366,-4.5485,-4.5449,-4.5379,-4.5367,-4.5377,-4.5429,-4.5461,-4.547,-4.5658,-4.5468,-4.5476,-4.5482,-4.5486,-4.6021,-4.6029,0,0,0,0,0,0,-4.5291,-4.5302,-4.5492,-4.5496,-4.5325,-4.5372,-4.5377,-4.5431,-4.5447,-4.5442,-4.5383,-4.5369,-4.5448,-4.5459,-4.5472,-4.5724,-4.5478,-4.5487,-4.5493,-4.6013,-4.6023,-4.6032,0,0,0,0,0,0,-4.5286,-4.531,-4.5489,-4.5396,-4.5415,-4.5385,-4.5446,-4.5436,-4.5468,-4.545,-4.5443,-4.5423,-4.5442,-4.5458,-4.5608,-4.5724,-4.5492,-4.55,-4.6003,-4.6016,-4.6028,-4.6231,0,0,0,0,0,0,-4.5279,-4.5309,-4.539,-4.5399,-4.5421,-4.5625,-4.5453,-4.5443,-4.5485,-4.5467,-4.5486,-4.5482,-4.5438,-4.5594,-4.5618,-4.5734,-4.5508,-4.5993,-4.6009,-4.6024,-4.6213,-4.6248,-4.6279,0,0,0,0,0,-4.527,-4.5445,-4.5395,-4.5419,-4.5522,-4.5632,-4.5644,-4.559,-4.5495,-4.5577,-4.5565,-4.5481,-4.5708,-4.5611,-4.5636,-4.5757,-4.5985,-4.6004,-4.6023,-4.6199,-4.6242,-4.6278,0,0,0,0,0,0,-4.5452,-4.5445,-4.5389,-4.5572,-4.5604,-4.5604,-4.5705,-4.5637,-4.5696,-4.5677,-4.5607,-4.5613,-4.5775,-4.578,-4.5673,-4.5965,-4.583,-4.5855,-4.5956,-4.5996,-4.6028,-4.6024,-4.5516,0,0,0,0,0,-4.5513,-4.5602,-4.5591,-4.5754,-4.5772,-4.5737,-4.5782,-4.5737,-4.5767,-4.578,-4.5779,-4.5812,-4.589,-4.5943,-4.6014,-4.6213,-4.6215,-4.6308,-4.6341,-4.6368,-4.639,-4.6495,-4.6537,-4.6094,-4.6094,-4.6093,0,0,-4.564,-4.5648,-4.5708,-4.579,-4.5809,-4.5904,-4.5749,-4.5855,-4.5924,-4.5796,-4.5937,-4.5938,-4.5969,-4.6145,-4.6222,-4.6154,-4.6513,-4.6391,-4.6413,-4.6421,-4.6519,-4.6561,-4.6598,-4.6106,-4.6104,-4.6102,0,0,-4.5921,-4.5935,-4.6072,-4.6094,-4.6125,-4.6099,-4.6132,-4.6143,-4.6138,-4.6279,-4.6184,-4.6265,-4.6402,-4.6428,-4.6459,-4.6749,-4.6674,-4.6774,-4.6945,-4.7048,-4.7083,-4.7113,-4.7217,-4.7255,-4.6796,-4.6797,-4.6797,0,-4.6075,-4.6213,-4.6151,-4.6264,-4.6302,-4.619,-4.6327,-4.6352,-4.6405,-4.6434,-4.6357,-4.6526,-4.6539,-4.6718,-4.6789,-4.6818,-4.6854,-4.6772,-4.7083,-4.7113,-4.7141,-4.7238,-4.7278,-4.6809,-4.6807,-4.6806,-4.6805,0,-4.6402,-4.6499,-4.6606,-4.6659,-4.6709,-4.6835,-4.6791,-4.6849,-4.68,-4.6783,-4.6927,-4.6939,-4.701,-4.7049,-4.7003,-4.7223,-4.718,-4.7094,-4.6958,-4.7196,-4.7287,-4.7324,-4.6826,-4.6822,-4.6818,-4.6815,0,0,-4.6799,-4.6816,-4.6856,-4.6878,-4.6904,-4.6978,-4.7097,-4.7166,-4.7218,-4.7258,-4.7356,-4.7474,-4.7395,-4.7431,-4.7385,-4.7476,-4.7705,-4.7379,-4.7379,-4.744,-4.7948,-4.8013,-4.8057,-4.7655,-4.7662,-4.7667,-4.7945,0,-4.7076,-4.7281,-4.7228,-4.7432,-4.752,-4.7414,-4.7518,-4.7545,-4.7533,-4.7606,-4.7591,-4.7676,-4.7565,-4.7586,-4.7671,-4.7659,-4.7806,-4.7638,-4.7746,-4.7751,-4.7742,-4.8104,-4.8173,-4.8435,-4.7981,-4.7986,-4.7991,0,-4.7427,-4.748,-4.7693,-4.7703,-4.7738,-4.7832,-4.7891,-4.7963,-4.7991,-4.7975,-4.8015,-4.7951,-4.8069,-4.7931,-4.8093,-4.798,-4.802,-4.8021,-4.803,-4.8038,-4.7886,-4.8123,-4.8518,-4.8557,-4.8046,-4.8042,-4.8038,0,-4.7695,-4.782,-4.7963,-4.7986,-4.8001,-4.807,-4.808,-4.81,-4.8145,-4.8196,-4.8224,-4.8289,-4.8325,-4.8377,-4.8333,-4.8237,-4.8501,-4.836,-4.8492,-4.8493,-4.8553,-4.855,-4.896,-4.8579,-4.8578,-4.8578,-4.8577,0,-4.801,-4.8145,-4.8084,-4.8173,-4.832,-4.8257,-4.8405,-4.8402,-4.8421,-4.8507,-4.8419,-4.8501,-4.8437,-4.8515,-4.8481,-4.8619,-4.8636,-4.8627,-4.8616,-4.8635,-4.8636,-4.8661,-4.8642,-4.8588,-4.8586,-4.8584,-4.8582,0,-4.8336,-4.83,-4.8449,-4.8451,-4.8455,-4.8564,-4.8565,-4.8647,-4.8627,-4.8737,-4.8759,-4.8728,-4.8814,-4.8775,-4.8865,-4.8842,-4.9021,-4.8986,-4.9012,-4.9003,-4.9137,-4.9125,-4.9578,-4.9634,-4.9217,-4.9221,-4.9224,0,-4.8539,-4.864,-4.8653,-4.8704,-4.8719,-4.8803,-4.8847,-4.8789,-4.884,-4.8879,-4.8957,-4.9035,-4.9094,-4.9237,-4.9223,-4.9291,-4.9257,-4.9411,-4.9267,-4.9283,-4.926,-4.9255,-4.9264,-4.9441,-4.9445,-4.9449,-4.9453,0,-4.8904,-4.8881,-4.895,-4.9013,-4.9069,-4.9115,-4.9154,-4.9201,-4.9144,-4.9206,-4.9292,-4.9339,-4.943,-4.9509,-4.9569,-4.9578,-4.9507,-4.9498,-4.9532,-4.9552,-4.9563,-4.9559,-4.9091,-4.9488,-4.9484,-4.9482,-4.948,-4.9478,-4.9175,-4.9259,-4.9281,-4.936,-4.9383,-4.9421,-4.9498,-4.9488,-4.9559,-4.9629,-4.959,-4.9691,-4.9716,-4.9789,-4.9808,-4.9887,-4.9826,-4.9875,-4.9888,-4.9901,-4.9919,-4.9551,-4.9897,-4.9896,-4.9895,-4.9894,-4.9894,0,-4.9535,-4.9543,-4.9617,-4.9674,-4.9736,-4.9662,-4.9701,-4.9758,-4.9848,-4.9877,-4.9937,-5.0037,-5.0113,-5.0105,-5.0174,-5.0239,-5.0208,-5.0259,-5.0254,-5.0257,-4.9969,-4.9933,-5.0283,-5.0283,-5.0283,-5.0283,-5.0283,-5.0282,-4.973,-4.9869,-4.9849,-4.9998,-5.0005,-5.0104,-5.0132,-5.0167,-5.019,-5.0305,-5.0367,-5.0361,-5.0375,-5.0445,-5.0511,-5.0507,-5.0537,-5.0601,-5.0584,-5.0316,-5.0277,-5.0241,-5.0206,-5.0608,-5.0608,-5.0865,-5.0868,-5.0869]},{"header":{"parameterUnit":"m.s-1","parameterCategory":1,"la1":30.2991,"la2":30.254,"lo1":-89.0895,"lo2":-89.0444,"dy":0.0017,"dx":0.0017,"nx":28,"ny":28,"refTime":"2023-09-27T21:00:00:Z","depth":0,"parameterNumber":3,"parameterNumberName":"V-component_of_WINDS"},"data":[0,0,0,0,0,0,0,0,0,0,0,0,0,0,0,0,0,0,0,0,0,0,0,0,0,0,0,0,0,0,0,0,0,0,0,0,0,0,0,0,0,0,0,0,0,0,0,0,0,0,0,0,0,0,0,0,0,0,-2.4682,-2.4682,0,-2.4666,-2.4666,-2.4666,-2.4632,-2.4632,-2.4631,-2.463,-2.4613,-2.4613,-2.4613,0,0,0,0,0,0,0,0,0,0,0,0,0,-2.4681,-2.4681,-2.4682,-2.4682,-2.4681,-2.4666,-2.4666,-2.4665,-2.4632,-2.4632,-2.4631,-2.463,-2.4613,-2.4613,-2.4613,0,0,0,0,0,0,0,0,0,0,0,0,0,-2.4675,-2.4681,-2.4682,-2.4663,-2.4661,-2.4666,-2.4666,-2.4665,-2.4633,-2.4632,-2.4631,-2.463,-2.4613,-2.4613,-2.4613,-2.4635,0,0,-2.4614,-2.4614,0,0,0,0,0,0,0,0,-2.4675,-2.4675,-2.4666,-2.4664,-2.4662,-2.465,-2.4659,-2.4655,-2.4633,-2.4643,-2.463,-2.4629,-2.4626,-2.4625,-2.4624,-2.4634,-2.4633,-2.4614,-2.4614,-2.4614,-2.4614,0,0,0,0,0,0,0,-2.4676,-2.4675,-2.4675,-2.4666,-2.4664,-2.4655,-2.4653,-2.4658,-2.464,-2.4642,-2.464,-2.4639,-2.4625,-2.4624,-2.4624,-2.4633,-2.4614,-2.4614,-2.4614,-2.4614,-2.4656,-2.4657,0,0,0,0,0,0,-2.4679,-2.4676,-2.4676,-2.4675,-2.4667,-2.4655,-2.4653,-2.4655,-2.464,-2.4637,-2.464,-2.4637,-2.4624,-2.4623,-2.4623,-2.4645,-2.4614,-2.4614,-2.4615,-2.4655,-2.4656,-2.4657,0,0,0,0,0,0,-2.4679,-2.4679,-2.4677,-2.4675,-2.4674,-2.4657,-2.4659,-2.4655,-2.4654,-2.4638,-2.4635,-2.4642,-2.4623,-2.4623,-2.4631,-2.4644,-2.4615,-2.4615,-2.4654,-2.4655,-2.4657,-2.469,0,0,0,0,0,0,-2.4679,-2.468,-2.4688,-2.4675,-2.4674,-2.4686,-2.466,-2.4656,-2.4655,-2.4652,-2.464,-2.4637,-2.4623,-2.4631,-2.4632,-2.4644,-2.4615,-2.4653,-2.4655,-2.4656,-2.4688,-2.4693,-2.4697,0,0,0,0,0,-2.4679,-2.4699,-2.4689,-2.4689,-2.4685,-2.4687,-2.4686,-2.467,-2.4656,-2.4664,-2.4653,-2.4637,-2.4643,-2.4632,-2.4633,-2.4645,-2.4652,-2.4654,-2.4656,-2.4686,-2.4692,-2.4697,0,0,0,0,0,0,-2.4714,-2.4697,-2.4686,-2.4702,-2.4696,-2.4682,-2.4691,-2.4677,-2.4675,-2.4672,-2.4651,-2.4649,-2.466,-2.4653,-2.4642,-2.4663,-2.4644,-2.4647,-2.4667,-2.4672,-2.4677,-2.4678,-2.4615,0,0,0,0,0,-2.4724,-2.4728,-2.4712,-2.4728,-2.4726,-2.4709,-2.471,-2.4697,-2.469,-2.4688,-2.4678,-2.4671,-2.4671,-2.4672,-2.4671,-2.4687,-2.4683,-2.4695,-2.47,-2.4703,-2.4705,-2.4711,-2.4716,-2.4664,-2.4664,-2.4664,0,0,-2.4744,-2.4735,-2.4738,-2.4734,-2.4729,-2.4732,-2.4707,-2.4713,-2.4715,-2.4689,-2.4696,-2.4688,-2.4679,-2.4691,-2.4696,-2.4686,-2.4718,-2.4706,-2.4709,-2.4709,-2.4714,-2.4718,-2.4723,-2.4666,-2.4666,-2.4665,0,0,-2.4781,-2.4775,-2.4786,-2.4781,-2.4772,-2.4761,-2.4763,-2.475,-2.4744,-2.4751,-2.4731,-2.4732,-2.4734,-2.4727,-2.4724,-2.4757,-2.4741,-2.4758,-2.478,-2.4786,-2.479,-2.4793,-2.4803,-2.4807,-2.476,-2.476,-2.476,0,-2.4806,-2.4812,-2.4794,-2.48,-2.4798,-2.4774,-2.4784,-2.4779,-2.4771,-2.477,-2.4759,-2.4758,-2.4751,-2.476,-2.4767,-2.4766,-2.4767,-2.4759,-2.4791,-2.4794,-2.4797,-2.4806,-2.481,-2.4762,-2.4761,-2.4761,-2.4761,0,-2.4842,-2.4846,-2.4856,-2.4847,-2.4847,-2.4855,-2.4837,-2.4838,-2.4826,-2.4815,-2.4821,-2.4811,-2.4807,-2.4808,-2.4796,-2.4815,-2.4809,-2.4795,-2.4775,-2.4804,-2.4812,-2.4816,-2.4764,-2.4764,-2.4763,-2.4763,0,0,-2.4901,-2.4882,-2.4886,-2.4881,-2.4869,-2.4871,-2.4877,-2.4873,-2.4873,-2.4868,-2.4871,-2.4871,-2.4858,-2.4854,-2.4841,-2.4847,-2.487,-2.4832,-2.4831,-2.4838,-2.4888,-2.4897,-2.4902,-2.486,-2.4861,-2.4861,-2.4888,0,-2.4935,-2.4945,-2.4928,-2.4941,-2.4943,-2.492,-2.4925,-2.4917,-2.4907,-2.4906,-2.4895,-2.4894,-2.4878,-2.4875,-2.4879,-2.4867,-2.488,-2.4865,-2.4862,-2.4862,-2.4863,-2.4906,-2.4917,-2.4942,-2.4891,-2.4891,-2.4892,0,-2.4975,-2.4971,-2.4984,-2.4969,-2.4969,-2.4974,-2.4968,-2.4968,-2.4958,-2.495,-2.4945,-2.493,-2.4933,-2.4915,-2.4918,-2.4908,-2.4906,-2.4899,-2.49,-2.4898,-2.4878,-2.4904,-2.495,-2.4953,-2.4897,-2.4897,-2.4896,0,-2.5015,-2.5012,-2.5019,-2.5016,-2.4999,-2.5003,-2.4996,-2.4985,-2.4983,-2.4977,-2.4975,-2.497,-2.4966,-2.4962,-2.4945,-2.4933,-2.4949,-2.493,-2.4941,-2.4942,-2.4945,-2.4945,-2.499,-2.4946,-2.4946,-2.4946,-2.4946,0,-2.5053,-2.5061,-2.5036,-2.5041,-2.5049,-2.5029,-2.5038,-2.5028,-2.5018,-2.5019,-2.4999,-2.5,-2.4978,-2.4976,-2.4962,-2.4966,-2.4965,-2.4958,-2.4954,-2.4959,-2.4959,-2.4956,-2.4953,-2.4947,-2.4947,-2.4946,-2.4946,0,-2.5098,-2.5082,-2.5088,-2.5071,-2.5067,-2.5073,-2.5058,-2.5061,-2.5049,-2.505,-2.5049,-2.503,-2.5026,-2.5009,-2.5002,-2.4992,-2.5,-2.4993,-2.5003,-2.5,-2.5012,-2.501,-2.5056,-2.506,-2.5015,-2.5015,-2.5015,0,-2.5123,-2.5129,-2.5112,-2.5111,-2.5105,-2.5104,-2.5101,-2.5082,-2.5079,-2.5067,-2.5071,-2.5066,-2.5061,-2.5056,-2.5041,-2.5035,-2.5026,-2.5043,-2.5025,-2.5029,-2.5024,-2.5024,-2.5023,-2.5046,-2.5047,-2.5047,-2.5048,0,-2.5168,-2.5159,-2.5156,-2.515,-2.5147,-2.5141,-2.5134,-2.5134,-2.5112,-2.511,-2.5107,-2.5103,-2.5094,-2.5089,-2.508,-2.5071,-2.5055,-2.5053,-2.5055,-2.506,-2.5064,-2.506,-2.5012,-2.5052,-2.5052,-2.5051,-2.5051,-2.5051,-2.5202,-2.5205,-2.5194,-2.519,-2.5183,-2.5176,-2.5177,-2.5164,-2.5161,-2.5153,-2.5141,-2.5138,-2.5126,-2.5112,-2.5105,-2.5102,-2.5093,-2.5096,-2.5096,-2.5097,-2.5099,-2.5066,-2.51,-2.51,-2.51,-2.51,-2.5099,0,-2.5244,-2.5235,-2.5233,-2.5223,-2.522,-2.5205,-2.5196,-2.5194,-2.5192,-2.5182,-2.5177,-2.5171,-2.5165,-2.5149,-2.5142,-2.5142,-2.5134,-2.514,-2.5139,-2.5137,-2.5108,-2.5107,-2.5147,-2.5147,-2.5147,-2.5147,-2.5147,-2.5147,-2.5266,-2.527,-2.526,-2.5259,-2.5249,-2.5247,-2.5242,-2.5235,-2.5227,-2.5222,-2.5217,-2.5206,-2.5193,-2.5184,-2.5178,-2.5173,-2.517,-2.5178,-2.5171,-2.5144,-2.514,-2.5135,-2.5134,-2.5179,-2.5179,-2.52,-2.52,-2.5201]}]]